Tracking 19280 objects as of 15-Nov-2018
HD Live streaming from Space Station
objects crossing your sky now

SURCAL 159

Track SURCAL 159 now!
10-day predictions
SURCAL 159 is classified as:


NORAD ID: 2872
Int'l Code: 1967-053F
Perigee: 901.9 km
Apogee: 908.5 km
Inclination: 70.0 °
Period: 102.9 minutes
Semi major axis: 7276 km
RCS: 0.3624 m2 (medium)
Launch date: May 31, 1967
Source: United States (US)
Launch site: AIR FORCE WESTERN TEST RANGE (AFWTR)
aabbcc
Your satellite tracking list
Your tracking list is empty




NASA's NSSDC Master Catalog

Two Line Element Set (TLE):
1  2872U 67053F   18319.13216310 -.00000004  00000-0  34716-4 0  9999
2  2872  69.9745 202.2829 0004536 150.7500 209.3861 13.98776639623045
Source of the keplerian elements: AFSPC